FW8756 Weather Reports


Display with metric or nautical units.
time (UTC)temp
F
wind
direction
speed
MPH
gust
MPH
rain 1hr
in
rain 24hr
in
rain mn
in
humidity
%
barometer
mb
20260504225428 80 173 0.0 2.0 0.00 0.00 0.00 63 1009.1
20260504224925 81 242 1.0 3.0 0.00 0.00 0.00 64 1009.3
20260504224422 82 195 1.0 3.0 0.00 0.00 0.00 63 1009.2
20260504223919 81 153 0.0 0.0 0.00 0.00 0.00 63 1009.2
20260504223414 81 249 2.0 2.0 0.00 0.00 0.00 62 1009.3
20260504222910 81 258 1.0 3.0 0.00 0.00 0.00 61 1009.4
20260504222408 80 201 3.0 3.0 0.00 0.00 0.00 63 1009.6
20260504221906 81 138 0.0 0.0 0.00 0.00 0.00 62 1009.4
20260504221402 81 214 3.0 3.0 0.00 0.00 0.00 61 1009.6
20260504220900 81 245 0.0 1.0 0.00 0.00 0.00 62 1009.4
20260504220356 81 167 0.0 0.0 0.00 0.00 0.00 61 1009.7
20260504215853 81 170 2.0 2.0 0.00 0.00 0.00 61 1009.8
20260504215349 81 156 0.0 0.0 0.00 0.00 0.00 62 1009.7
20260504214846 81 196 0.0 0.0 0.00 0.00 0.00 61 1009.7
20260504214343 82 154 3.0 5.0 0.00 0.00 0.00 60 1009.8
20260504213839 81 153 2.0 5.0 0.00 0.00 0.00 61 1010.0
20260504213335 82 169 2.0 3.0 0.00 0.00 0.00 60 1010.1
20260504212833 83 162 0.0 0.0 0.00 0.00 0.00 58 1010.0
20260504212329 83 169 0.0 0.0 0.00 0.00 0.00 57 1010.0
20260504211827 83 158 0.0 0.0 0.00 0.00 0.00 59 1010.2
20260504211322 82 169 0.0 0.0 0.00 0.00 0.00 59 1010.2
20260504210820 84 205 2.0 3.0 0.00 0.00 0.00 58 1010.4
20260504210317 84 241 1.0 2.0 0.00 0.00 0.00 58 1010.5
20260504205814 83 153 3.0 5.0 0.00 0.00 0.00 59 1010.6
20260504205312 82 174 1.0 1.0 0.00 0.00 0.00 59 1010.6
20260504204810 82 175 0.0 1.0 0.00 0.00 0.00 59 1010.7
20260504204308 82 265 0.0 2.0 0.00 0.00 0.00 58 1010.8
20260504203807 83 153 3.0 3.0 0.00 0.00 0.00 57 1010.8
20260504203304 84 256 1.0 2.0 0.00 0.00 0.00 56 1011.1
20260504202758 82 160 1.0 2.0 0.00 0.00 0.00 58 1011.1
20260504202256 84 166 0.0 1.0 0.00 0.00 0.00 57 1011.2
20260504201753 81 171 2.0 2.0 0.00 0.00 0.00 57 1011.4
20260504201250 81 203 0.0 0.0 0.00 0.00 0.00 60 1011.4
20260504200748 82 136 4.0 6.0 0.00 0.00 0.00 58 1011.6
20260504200243 82 182 3.0 3.0 0.00 0.00 0.00 56 1011.4
20260504195740 80 199 1.0 2.0 0.00 0.00 0.00 58 1011.5
20260504195236 80 177 0.0 0.0 0.00 0.00 0.00 58 1011.7
20260504194733 81 179 0.0 1.0 0.00 0.00 0.00 58 1011.7
20260504194229 82 249 4.0 7.0 0.00 0.00 0.00 57 1011.7
20260504193726 80 146 1.0 1.0 0.00 0.00 0.00 59 1011.7
20260504193224 81 195 3.0 5.0 0.00 0.00 0.00 58 1011.8
20260504192722 82 147 1.0 1.0 0.00 0.00 0.00 57 1012.3
20260504192219 82 167 0.0 0.0 0.00 0.00 0.00 58 1012.3
20260504191718 83 69 1.0 2.0 0.00 0.00 0.00 56 1012.3
20260504191214 82 219 0.0 1.0 0.00 0.00 0.00 58 1012.3
20260504190710 84 198 2.0 2.0 0.00 0.00 0.00 56 1012.3
20260504190206 83 171 3.0 6.0 0.00 0.00 0.00 56 1012.6
20260504185703 82 174 0.0 0.0 0.00 0.00 0.00 57 1012.6
20260504185159 82 135 1.0 2.0 0.00 0.00 0.00 57 1012.9
20260504184655 83 199 2.0 2.0 0.00 0.00 0.00 55 1013.0
20260504184151 82 199 0.0 0.0 0.00 0.00 0.00 56 1012.9
20260504183648 82 150 0.0 1.0 0.00 0.00 0.00 56 1012.8
20260504183145 82 227 1.0 1.0 0.00 0.00 0.00 56 1012.6
20260504182643 81 175 0.0 0.0 0.00 0.00 0.00 57 1013.2
20260504182140 82 177 2.0 2.0 0.00 0.00 0.00 54 1013.0
20260504181637 81 169 0.0 0.0 0.00 0.00 0.00 56 1013.1
20260504181135 82 251 3.0 3.0 0.00 0.00 0.00 54 1013.0
20260504180634 82 168 0.0 0.0 0.00 0.00 0.00 55 1013.0
20260504180132 82 181 0.0 1.0 0.00 0.00 0.00 55 1013.3
20260504175629 82 164 0.0 0.0 0.00 0.00 0.00 54 1013.2
20260504175125 82 151 1.0 1.0 0.00 0.00 0.00 55 1013.2
20260504174624 82 185 1.0 2.0 0.00 0.00 0.00 55 1013.3
20260504174120 80 166 1.0 2.0 0.00 0.00 0.00 58 1013.6
20260504173617 81 240 3.0 6.0 0.00 0.00 0.00 57 1013.5
20260504173115 82 172 1.0 2.0 0.00 0.00 0.00 56 1013.5
20260504172611 80 160 0.0 1.0 0.00 0.00 0.00 56 1013.9
20260504172108 81 171 4.0 6.0 0.00 0.00 0.00 56 1013.6
20260504171604 79 184 2.0 3.0 0.00 0.00 0.00 57 1013.9
20260504171102 78 203 3.0 3.0 0.00 0.00 0.00 59 1014.0
20260504170557 79 185 3.0 5.0 0.00 0.00 0.00 58 1013.8
20260504150941 74 82 3.0 5.0 0.00 0.00 0.00 65 1015.2
20260504150438 73 159 2.0 2.0 0.00 0.00 0.00 66 1015.1
20260504140904 70 261 3.0 6.0 0.00 0.00 0.00 68 1015.2
20260504140400 70 151 0.0 0.0 0.00 0.00 0.00 69 1015.0
20260504130325 66 138 1.0 3.0 0.00 0.00 0.00 73 1014.9
20260504120248 62 157 1.0 2.0 0.00 0.00 0.00 77 1014.7
20260504110716 63 152 1.0 2.0 0.00 0.00 0.00 74 1014.0
20260504110212 63 156 4.0 5.0 0.00 0.00 0.00 74 1014.2
20260504100131 62 141 0.0 0.0 0.00 0.00 0.00 76 1014.6
20260504081524 63 155 0.0 0.0 0.00 0.00 0.00 75 1015.3
20260504081019 63 151 0.0 0.0 0.00 0.00 0.00 75 1015.7
20260504080516 63 187 1.0 1.0 0.00 0.00 0.00 75 1015.5
20260504050328 65 154 0.0 0.0 0.00 0.00 0.00 70 1017.1
20260504045825 65 122 0.0 0.0 0.00 0.00 0.00 70 1017.2
20260504045320 65 187 0.0 0.0 0.00 0.00 0.00 69 1017.4
20260504044817 65 173 0.0 0.0 0.00 0.00 0.00 69 1017.4
20260504044315 65 159 0.0 0.0 0.00 0.00 0.00 68 1017.2
20260504043812 65 156 0.0 0.0 0.00 0.00 0.00 68 1017.2
20260504043309 65 146 0.0 0.0 0.00 0.00 0.00 68 1017.0
20260504042806 65 153 0.0 0.0 0.00 0.00 0.00 68 1017.2
20260504042304 66 155 0.0 0.0 0.00 0.00 0.00 68 1017.2
20260504041759 66 155 0.0 0.0 0.00 0.00 0.00 66 1017.0
20260504041255 66 158 0.0 0.0 0.00 0.00 0.00 66 1017.1
20260504040751 67 157 0.0 0.0 0.00 0.00 0.00 66 1016.9
20260504040249 67 174 0.0 0.0 0.00 0.00 0.00 65 1017.2
20260504035744 67 100 0.0 1.0 0.00 0.00 0.00 64 1017.1
20260504035242 67 147 0.0 1.0 0.00 0.00 0.00 64 1017.1
20260504034740 68 157 0.0 0.0 0.00 0.00 0.00 64 1017.3
20260504034237 68 150 1.0 2.0 0.00 0.00 0.00 63 1017.1
20260504033734 68 93 0.0 0.0 0.00 0.00 0.00 64 1017.2
20260504033231 68 141 0.0 0.0 0.00 0.00 0.00 64 1017.3
20260504032728 68 183 0.0 0.0 0.00 0.00 0.00 64 1017.2
20260504032225 68 162 0.0 0.0 0.00 0.00 0.00 64 1017.3
20260504031722 68 167 0.0 0.0 0.00 0.00 0.00 63 1017.2
20260504031220 68 135 0.0 0.0 0.00 0.00 0.00 63 1017.1
20260504030715 69 133 0.0 0.0 0.00 0.00 0.00 62 1016.9
20260504030213 68 159 0.0 0.0 0.00 0.00 0.00 62 1016.9
20260504025709 68 154 0.0 0.0 0.00 0.00 0.00 63 1016.9
20260504025206 68 115 0.0 0.0 0.00 0.00 0.00 63 1016.8
20260504024703 68 164 0.0 0.0 0.00 0.00 0.00 64 1016.8
20260504024159 68 154 0.0 0.0 0.00 0.00 0.00 63 1016.6
20260504023656 69 149 0.0 0.0 0.00 0.00 0.00 62 1016.8
20260504023152 69 156 0.0 0.0 0.00 0.00 0.00 62 1016.8
20260504022648 69 154 0.0 0.0 0.00 0.00 0.00 61 1016.8
20260504022144 69 152 0.0 0.0 0.00 0.00 0.00 61 1016.8
20260504021643 69 133 0.0 0.0 0.00 0.00 0.00 61 1016.5
20260504021139 70 151 0.0 0.0 0.00 0.00 0.00 60 1016.5
20260504020636 70 150 0.0 0.0 0.00 0.00 0.00 59 1016.6
20260504020132 70 155 0.0 0.0 0.00 0.00 0.00 59 1016.5
20260504015629 71 147 0.0 0.0 0.00 0.00 0.00 58 1016.3
20260504015125 71 161 0.0 0.0 0.00 0.00 0.00 58 1016.4
20260504014621 71 153 0.0 0.0 0.00 0.00 0.00 58 1016.3
20260504014118 71 150 0.0 0.0 0.00 0.00 0.00 58 1016.2
20260504013616 71 145 0.0 0.0 0.00 0.00 0.00 57 1016.3
20260504013113 72 147 0.0 0.0 0.00 0.00 0.00 55 1016.1
20260504012610 72 152 0.0 0.0 0.00 0.00 0.00 54 1016.2
20260504012108 72 154 1.0 1.0 0.00 0.00 0.00 55 1016.2
20260504011604 72 162 0.0 0.0 0.00 0.00 0.00 54 1016.1
20260504011101 72 171 0.0 0.0 0.00 0.00 0.00 52 1016.0
20260504010556 73 155 0.0 0.0 0.00 0.00 0.00 53 1016.1
20260504010053 73 153 0.0 0.0 0.00 0.00 0.00 53 1016.0
20260504005549 73 153 0.0 0.0 0.00 0.00 0.00 52 1015.9
20260504005047 74 158 0.0 0.0 0.00 0.00 0.00 51 1016.2
20260504004544 74 162 0.0 0.0 0.00 0.00 0.00 50 1016.0
20260504004041 74 155 0.0 0.0 0.00 0.00 0.00 49 1016.0
20260504003537 75 150 0.0 0.0 0.00 0.00 0.00 49 1016.1
20260504003034 75 164 0.0 1.0 0.00 0.00 0.00 47 1016.4
20260504002531 75 130 0.0 1.0 0.00 0.00 0.00 47 1016.2
20260504002029 76 156 0.0 0.0 0.00 0.00 0.00 46 1016.2
20260504001526 76 160 1.0 2.0 0.00 0.00 0.00 47 1016.2
20260504001022 76 139 0.0 0.0 0.00 0.00 0.00 47 1016.3
20260504000520 76 163 0.0 0.0 0.00 0.00 0.00 48 1016.5
20260504000017 77 155 0.0 0.0 0.00 0.00 0.00 46 1016.5
20260503235515 77 157 0.0 0.0 0.00 0.00 0.00 46 1016.4
20260503235012 76 158 0.0 0.0 0.00 0.00 0.00 47 1016.2
20260503234509 77 209 0.0 0.0 0.00 0.00 0.00 47 1016.5
20260503234008 77 156 0.0 0.0 0.00 0.00 0.00 47 1016.4
20260503233503 78 163 0.0 0.0 0.00 0.00 0.00 46 1016.3
20260503232959 78 159 0.0 0.0 0.00 0.00 0.00 46 1016.4
20260503232457 78 137 0.0 0.0 0.00 0.00 0.00 45 1016.5
20260503231955 78 120 0.0 0.0 0.00 0.00 0.00 46 1016.5
20260503231452 78 169 1.0 3.0 0.00 0.00 0.00 44 1016.3
20260503230948 78 125 0.0 0.0 0.00 0.00 0.00 44 1016.5
20260503230445 77 146 1.0 1.0 0.00 0.00 0.00 43 1016.6
20260503225943 77 193 0.0 0.0 0.00 0.00 0.00 44 1016.4